Regional Weather Roundup
Issued by NWS Wakefield, VA

Home | Current Version | Previous Version | Graphics & Text | Print | Product List | Glossary On
Versions: 1 2 3 4 5 6 7 8 9 10 11 12 13 14 15 16 17 18 19 20 21 22 23 24 25 26 27 28 29 30 31 32 33 34 35 36 37 38 39 40 41 42 43 44 45 46 47 48 49 50
000
ASUS41 KAKQ 291710
RWRAKQ

REGIONAL WEATHER ROUNDUP
NATIONAL WEATHER SERVICE WAKEFIELD VA
100 PM EDT TUE JUL 29 2014

Note: "fair" indicates few or no clouds below 12,000 feet with no
significant weather and/or obstructions to visibility. * = Denotes
station may not report precipitation (e.g., rain,snow,etc.),
thunder or fog.

VAZ042-051-052>054-056-291800-
NORTHERN VIRGINIA

CITY           SKY/WX    TMP DP  RH WIND       PRES   REMARKS
WASH NATIONAL  MOSUNNY   74  48  39 W16G25    29.95S
DULLES         MOSUNNY   70  46  42 NW14G23   29.95S
FORT BELVOIR   MOSUNNY   73  54  49 NW7       29.93F
QUANTICO       MOSUNNY   74  50  42 NW12G26   29.96S
FREDERICKSBRG* SUNNY     76  53  44 NW10G18   29.94S
STAFFORD*      MOSUNNY   72  51  48 W8        29.99S
WARRENTON      PTSUNNY   75  60  58 NW12      29.95S
CULPEPER*      MOSUNNY  N/A N/A N/A W7        29.96S
MANASSAS*      NOT AVBL
LEESBURG*      MOSUNNY   72  54  53 W9        29.96F
WINCHESTER     MOSUNNY   70  46  43 W12G21    29.97S
$$

VAZ048-049-060>072-079>083-291800-
CENTRAL AND SOUTH CENTRAL VIRGINIA...AND NORTH CENTRAL NORTH CAROLINA

CITY           SKY/WX    TMP DP  RH WIND       PRES   REMARKS
RICHMOND       MOSUNNY   78  50  37 W8        29.94F
CHESTERFIELD*  SUNNY     77  48  36 NW8       29.97S
HANOVER        MOSUNNY   76  50  40 CALM      29.96F
TAPPAHANNOCK*  SUNNY     76  46  33 W9        29.94F
CHARLOTTSVILLE CLOUDY    71  54  54 N3        29.97S
ORANGE*        PTSUNNY   73  54  49 W13       29.98R
LOUISA*        MOSUNNY   75  54  46 CALM      29.95S
FARMVILLE*     PTSUNNY   77  50  38 SW6       29.94F
SOUTH HILL*    SUNNY     79  52  38 N6        30.01S
ROANOKE RAPIDS NOT AVBL
RALEIGH        MOSUNNY   78  53  41 CALM      29.96F
$$

VAZ088>098-291800-
SOUTHEAST VIRGINIA

CITY           SKY/WX    TMP DP  RH WIND       PRES   REMARKS
NORFOLK        SUNNY     76  61  59 N9        29.93S
VIRGINIA BEACH PTSUNNY   76  62  62 N10       29.93R
NORFOLK NAVAL  MOSUNNY   75  61  61 NE10      29.95R
WEST POINT*    SUNNY     78  50  36 NW6       29.95F
NEWPORT NEWS   MOSUNNY   81  59  47 N8        29.93S
LANGLEY AFB    MOSUNNY   76  61  58 N7        29.93S
FORT EUSTIS    SUNNY     76  59  54 NW8       29.92S
WILLIAMSBURG*  SUNNY     81  59  47 N7        29.94F
FRANKLIN*      SUNNY     77  59  53 NW6       29.94S
WAKEFIELD      SUNNY     78  55  44 N9        29.94S
$$

VAZ020-022-025-037-045-291800-
WESTERN AND SOUTHWEST VIRGINIA

CITY           SKY/WX    TMP DP  RH WIND       PRES   REMARKS
STAUNTON*      CLOUDY    68  53  58 SW5       30.01F
HOT SPRINGS VA CLOUDY    60  50  70 W14       30.07S
LYNCHBURG      CLOUDY    73  55  53 SW6       29.98F
DANVILLE       MOSUNNY   76  53  44 VRB3      29.98F
MARTINSVILLE   PTSUNNY   77  55  47 SW5       30.01S
ROANOKE        PTSUNNY   74  54  49 SW5       29.99F
BLACKSBURG     MOSUNNY   73  48  40 NW8       30.04S
DUBLIN*        PTSUNNY   74  50  42 W6        30.03S
MARION*        PTSUNNY   69  50  51 SW5       30.07F
HILLSVILLE*    PTSUNNY   68  46  45 W8        30.04S
RICHLANDS*     MOSUNNY   69  55  60 W7        30.06S
WISE*          PTSUNNY   68  48  49 W7        30.09S
ABINGDON*      MOSUNNY   72  52  49 NW5       30.05F
$$

MDZ021>025-VAZ099-100-291800-
SOUTHERN MARYLAND AND THE DELMARVA PENINSULA

CITY           SKY/WX    TMP DP  RH WIND       PRES   REMARKS
PATUXENT RIVER MOSUNNY   77  51  40 NW12      29.92S
BAY BRIDGE APT   N/A     73  52  46 W5        29.92S
LEONARDTOWN    SUNNY     73  52  46 W7        29.95R
DOVER          PTSUNNY   74  58  58 VRB6      29.89S
GEORGETOWN     CLOUDY    75  55  49 VRB5      29.91S
EASTON         PTSUNNY   75  59  57 NW7       29.95S
CAMBRIDGE      PTSUNNY   73  55  53 W5        29.92S
SALISBURY      PTSUNNY  N/A N/A N/A MISG      29.91S
OCEAN CITY     CLOUDY    73  61  65 E7        29.91R
WALLOPS ISLAND MOSUNNY   78  59  51 N8        29.92R
ACCOMACK*        N/A     73  59  60 NW10      29.93R
$$

NCZ012>017-030>032-291800-
EASTERN NORTH CAROLINA

CITY           SKY/WX    TMP DP  RH WIND       PRES   REMARKS
ELIZABETH CITY PTSUNNY   78  62  57 CALM      29.92S
AHOSKIE*       SUNNY     76  57  50 CALM      29.95R
EDENTON*       MOSUNNY   78  64  61 N8        29.93S
CURRITUCK*     PTSUNNY   78  62  57 NE8       29.93S
KILL DEVIL HLS SUNNY     78  66  64 N9        29.92R
MANTEO         NOT AVBL
CAPE HATTERAS  PTSUNNY   78  67  68 VRB7      29.92R
GOLDSBORO      SUNNY     79  63  57 N7        29.92S
WASHINGTON     SUNNY     78  61  57 N7        29.93S
GREENVILLE     MOSUNNY   79  61  53 NE9       29.95S
NEW BERN       MOSUNNY   83  64  52 E8        29.93S
WILMINGTON     PTSUNNY   84  66  54 NE6       29.91S
$$

VAZ048-291800-
ELSEWHERE

CITY           SKY/WX    TMP DP  RH WIND       PRES   REMARKS
HARRISBURG PA  CLOUDY    70  55  59 NW9       29.92S
BALTIMORE      CLOUDY    71  50  47 SW10      29.92S
ANNAPOLIS      MOSUNNY   72  51  47 VRB7      29.92S
ANDREWS AFB    PTSUNNY   71  50  46 NW12      29.94S
WILMINGTON DE  MOSUNNY   73  56  54 NW7       29.91S
PHILADELPHIA   MOSUNNY   73  52  47 VRB5      29.90S
WILDWOOD NJ*   SUNNY     73  55  53 W9        29.92S
ATLANTIC CITY  PTSUNNY   75  55  49 VRB5      29.89S
HENDERSON NC   SUNNY     76  53  43 NW5       29.97S
GREENSBORO     PTSUNNY   78  56  46 N3        29.98S
ROCKY MOUNT    SUNNY     80  57  45 VRB5      29.95S
FAYETTEVILLE   SUNNY     83  57  41 VRB3      29.93F
CHARLOTTE      MOSUNNY   78  56  46 CALM      29.98F
$$

VAZ100-291800-
MARINE

STATION/POSITION TIME  TEMP    WIND        PRES    WAVE   SWELL
                       AIR SEA DIR/SP/G            HT/PER HT/PER
                 (UTC) (F)     (DEG/KT/KT) (MB)    (FT/S) (FT/S)
44066 TX TWR #4  1700   69 75  310/  8/ 12 1011.3R   4/ 7   3/ 7
CAPE MAY NJ      1700   74 77  310/  3/  9 1012.4S
LEWES DE         1700   69 73   10/  7/  8 1012.6S
15NM E FENWICK I 1700   69 74              1013.1R   2/ 8
OCEAN-CITY-INLET 1700   70 69   70/  8/ 11 1012.4S
WACHAPREAGUE VA  1700   77 78  290/  3/  7 1013.3R
THOMAS POINT MD  1700   69 78  260/ 12/ 14 1013.7R
GOOSES REEF MD   1700   71     320/  8/ 12 1013.7F
COVE POINT MD    1700   71     300/ 10/ 14 1013.2S
SOLOMONS ISLAND  1700      80                N/A
BISHOPS HEAD MD  1700   71 76  290/ 10/ 12 1012.9S
PINEY POINT MD   1700          320/ 15/ 18   N/A
POTOMAC MD       1600   71     310/ 12/ 14 1012.8F
CAMBRIDGE MD     1700   70 78  320/  7/ 11 1012.8S
LEWISETTA VA     1700   72 78  310/ 13/ 16 1013.4S
RAPPAHANNOCK LGT 1700          320/ 11/ 13 1014.1R
STINGRAY PT      1700   72     290/ 12/ 16 1014.1S
YORK RVR RNG VA  1700   73     360/ 10/ 12 1013.0S
YORKTOWN VA      1700   73 79  310/ 14/ 16 1013.3S
JAMESTOWN VA     1700   72     320/ 12/ 14   N/A
DOMINION TERM VA 1700   73     310/ 11/ 14 1013.6R
KIPTOPEKE VA     1700      81  340/  7/ 11   N/A
CHES BAY BRIDGE  1700   72 77  340/  9/ 11 1013.2R
CAPE HENRY VA    1700   72     330/ 10/ 12 1012.6R
WILLOUBY STN VA  1700          320/  4/  5 1012.9R
S CRANEY ISL VA  1700          300/  4/  6 1013.7R
CAPE HENRY BUOY  1600      78                N/A     2/ 8
1ST LANDING BUOY 1700   72     330/  8/ 12 1013.4R
CAPE CHARLES BUO 1700      76                N/A     2/ 8
OFFSHORE WE BUOY 1600      78                N/A     3/ 8
64NM E OF VA BCH 1700   74 78  350/  8/ 10 1012.9R   3/ 8   3/ 8
DUCK PIER NC     1700   73 69  360/ 12/ 14 1012.5R
44056 DUCK FRF   1600                        N/A     3/ 4
OREGON INLET NC  1700   77 78   10/  9/ 13 1013.1R
HATTERAS NC      1700   78 80   40/  7/ 11 1013.3R
DIAMOND SHLS NC  1700          VRB 14/ 16  1012.3R   4/ 8   3/ 8
CAPE LOOKOUT NC  1600   79      10/  9/ 12 1012.4R
$$


USA.gov is the U.S. government's official web portal to all federal, state and local government web resources and services.